Date,TemperatureHighF,TemperatureAvgF,TemperatureLowF,DewpointHighF,DewpointAvgF,DewpointLowF,HumidityHigh,HumidityAvg,HumidityLow,PressureMaxIn,PressureMinIn,WindSpeedMaxMPH,WindSpeedAvgMPH,GustSpeedMaxMPH,PrecipitationSumIn
2013-3-1,56.5,51.9,48.0,51.5,45.6,33.6,93,80,45,30.12,30.03,5,0,8,0.20
2013-3-2,56.8,47.1,37.6,45.5,36.9,28.4,86,70,36,30.03,29.83,6,0,7,0.43
2013-3-3,46.9,38.9,30.6,35.1,27.1,20.2,81,64,37,30.06,29.94,5,0,5,0.04
2013-3-4,52.9,38.1,27.9,24.4,17.6,9.6,70,47,23,30.06,29.68,8,1,8,0.00
2013-3-5,52.5,43.0,35.2,26.1,20.8,13.0,54,42,27,29.68,29.47,6,0,9,0.00
2013-3-6,46.2,41.5,39.2,33.5,29.2,24.0,77,62,47,29.65,29.32,6,0,8,0.63
2013-3-7,51.3,42.7,34.7,40.4,33.0,26.3,84,70,41,29.83,29.65,0,0,4,0.31
2013-3-8,52.9,39.4,31.3,32.5,26.6,23.3,77,62,32,29.97,29.83,4,0,8,0.00
2013-3-9,56.5,39.8,29.5,32.6,21.6,17.7,81,51,25,30.24,29.97,6,0,6,0.00
2013-3-10,46.8,39.9,32.4,35.0,30.3,21.4,77,69,58,30.27,30.18,0,0,0,0.04
2013-3-11,53.1,45.0,38.7,39.7,33.6,25.4,81,67,36,30.18,29.91,3,0,4,0.12
2013-3-12,52.0,49.7,45.7,47.8,41.9,31.4,90,76,48,29.91,29.85,4,0,8,0.04
2013-3-13,54.1,51.0,48.7,48.5,44.9,41.2,87,80,64,29.97,29.85,4,0,5,0.28
2013-3-14,56.8,50.6,47.8,48.8,42.6,29.3,88,75,42,29.91,29.77,4,0,8,0.04
2013-3-15,59.4,52.0,48.0,48.7,40.6,31.3,87,68,35,29.97,29.91,5,0,6,0.00
2013-3-16,50.2,46.3,39.7,40.6,31.7,19.9,78,58,38,29.91,29.68,8,0,9,0.16
2013-3-17,49.8,41.9,39.0,25.5,20.4,15.7,56,43,28,29.97,29.77,8,1,9,0.00
2013-3-18,54.5,42.7,33.8,30.8,21.0,15.2,61,43,23,30.00,29.91,8,0,8,0.04
2013-3-19,56.1,40.9,31.5,36.2,24.0,11.5,79,55,17,29.97,29.35,9,0,9,0.24
2013-3-20,50.0,44.8,39.0,45.6,31.7,17.1,90,63,37,29.80,29.18,9,1,11,0.63
2013-3-21,49.1,38.6,33.4,28.5,21.3,14.2,77,52,29,29.97,29.80,6,0,8,0.24
2013-3-22,48.0,36.5,30.2,30.2,24.0,18.5,78,62,34,30.12,29.97,4,0,5,0.28
2013-3-23,52.0,37.4,29.8,25.9,18.8,13.4,68,50,24,30.15,30.03,4,0,6,0.00
2013-3-24,55.8,39.0,28.4,24.1,19.0,13.5,65,47,20,30.06,29.85,5,0,6,0.00
2013-3-25,64.4,45.9,30.7,25.7,18.9,14.8,59,37,15,29.88,29.68,6,0,6,0.00
2013-3-26,63.5,50.4,41.7,28.6,24.3,19.6,54,38,21,29.77,29.71,5,0,6,0.00
2013-3-27,58.6,48.9,41.0,37.2,29.5,24.6,70,48,28,29.74,29.68,6,0,6,0.00
2013-3-28,63.5,49.1,40.1,41.9,33.4,23.9,78,58,25,29.91,29.74,5,0,8,0.00
2013-3-29,66.2,50.8,39.0,42.3,30.7,23.2,80,51,23,30.00,29.91,5,0,6,0.04
2013-3-30,69.4,52.0,37.9,34.9,27.7,22.6,77,43,20,30.00,29.83,8,1,9,0.00
2013-3-31,72.5,54.3,39.0,38.0,29.1,21.9,79,42,16,29.83,29.65,6,0,8,0.00